Time,TemperatureF,DewpointF,PressureIn,WindDirection,WindDirectionDegrees,WindSpeedMPH,WindSpeedGustMPH,Humidity,HourlyPrecipIn,Conditions,Clouds,dailyrainin,SoftwareType,DateUTC
2013-03-06 00:02:00,24.0,19.0,30.38,NNE,22,3.0,10.0,80,0.00,,,0.00,,2013-03-06 06:02:00,
2013-03-06 00:11:00,24.0,19.0,30.38,NNE,22,3.0,10.0,80,0.00,,,0.00,,2013-03-06 06:11:00,
2013-03-06 00:22:00,23.0,18.0,30.38,NNE,18,2.0,12.0,80,0.00,,,0.00,,2013-03-06 06:22:00,
2013-03-06 00:32:00,23.0,18.0,30.39,North,5,8.0,17.0,80,0.00,,,0.00,,2013-03-06 06:32:00,
2013-03-06 00:42:00,23.0,18.0,30.39,North,5,8.0,17.0,80,0.00,,,0.00,,2013-03-06 06:42:00,
2013-03-06 00:52:00,23.0,18.0,30.39,North,355,7.0,12.0,80,0.00,,,0.00,,2013-03-06 06:52:00,
2013-03-06 01:01:00,23.0,18.0,30.39,NNW,346,5.0,11.0,81,0.00,,,0.00,,2013-03-06 07:01:00,
2013-03-06 01:11:00,23.0,18.0,30.39,NNW,346,5.0,11.0,81,0.00,,,0.00,,2013-03-06 07:11:00,
2013-03-06 01:22:00,23.0,18.0,30.40,North,360,7.0,14.0,81,0.00,,,0.00,,2013-03-06 07:22:00,
2013-03-06 01:31:00,23.0,18.0,30.39,North,355,7.0,12.0,81,0.00,,,0.00,,2013-03-06 07:31:00,
2013-03-06 01:42:00,23.0,18.0,30.39,North,355,7.0,12.0,81,0.00,,,0.00,,2013-03-06 07:42:00,
2013-03-06 01:52:00,23.0,18.0,30.40,NNW,345,3.0,12.0,82,0.00,,,0.00,,2013-03-06 07:52:00,
2013-03-06 02:01:00,23.0,18.0,30.41,North,360,3.0,11.0,82,0.00,,,0.00,,2013-03-06 08:01:00,
2013-03-06 02:11:00,23.0,18.0,30.41,North,360,3.0,11.0,82,0.00,,,0.00,,2013-03-06 08:11:00,
2013-03-06 02:21:00,23.0,19.0,30.41,North,351,6.0,11.0,83,0.00,,,0.00,,2013-03-06 08:21:00,
2013-03-06 02:32:00,22.0,17.0,30.41,NNW,348,6.0,13.0,82,0.00,,,0.00,,2013-03-06 08:32:00,
2013-03-06 02:42:00,22.0,17.0,30.41,NNW,348,6.0,13.0,82,0.00,,,0.00,,2013-03-06 08:42:00,
2013-03-06 02:52:00,22.0,17.0,30.41,North,11,4.0,11.0,82,0.00,,,0.00,,2013-03-06 08:52:00,
2013-03-06 03:01:00,22.0,18.0,30.40,NE,44,5.0,8.0,83,0.00,,,0.00,,2013-03-06 09:01:00,
2013-03-06 03:12:00,22.0,18.0,30.40,NE,44,5.0,8.0,83,0.00,,,0.00,,2013-03-06 09:12:00,
2013-03-06 03:21:00,22.0,18.0,30.40,NNW,341,1.0,12.0,83,0.00,,,0.00,,2013-03-06 09:21:00,
2013-03-06 03:31:00,22.0,18.0,30.40,NNE,24,2.0,8.0,83,0.00,,,0.00,,2013-03-06 09:31:00,
2013-03-06 03:42:00,22.0,18.0,30.40,NNE,24,2.0,8.0,83,0.00,,,0.00,,2013-03-06 09:42:00,
2013-03-06 03:52:00,21.0,17.0,30.41,NE,50,4.0,8.0,83,0.00,,,0.00,,2013-03-06 09:52:00,
2013-03-06 04:01:00,21.0,17.0,30.41,NE,34,2.0,10.0,84,0.00,,,0.00,,2013-03-06 10:01:00,
2013-03-06 04:11:00,21.0,17.0,30.41,NE,34,2.0,10.0,84,0.00,,,0.00,,2013-03-06 10:11:00,
2013-03-06 04:21:00,21.0,17.0,30.41,North,355,6.0,10.0,84,0.00,,,0.00,,2013-03-06 10:21:00,
2013-03-06 04:31:00,21.0,17.0,30.41,NNW,333,7.0,10.0,84,0.00,,,0.00,,2013-03-06 10:31:00,
2013-03-06 04:42:00,21.0,17.0,30.41,NNW,333,7.0,10.0,84,0.00,,,0.00,,2013-03-06 10:42:00,
2013-03-06 04:52:00,21.0,17.0,30.40,NW,323,5.0,10.0,85,0.00,,,0.00,,2013-03-06 10:52:00,
2013-03-06 05:02:00,21.0,17.0,30.42,NNW,344,4.0,8.0,85,0.00,,,0.00,,2013-03-06 11:02:00,
2013-03-06 05:11:00,21.0,17.0,30.42,NNW,344,4.0,8.0,85,0.00,,,0.00,,2013-03-06 11:11:00,
2013-03-06 05:22:00,21.0,17.0,30.41,NNW,335,4.0,10.0,84,0.00,,,0.00,,2013-03-06 11:22:00,
2013-03-06 05:32:00,21.0,17.0,30.41,NE,45,1.0,5.0,85,0.00,,,0.00,,2013-03-06 11:32:00,
2013-03-06 05:42:00,21.0,17.0,30.41,NE,45,1.0,5.0,85,0.00,,,0.00,,2013-03-06 11:42:00,
2013-03-06 05:52:00,21.0,17.0,30.41,NE,41,1.0,7.0,85,0.00,,,0.00,,2013-03-06 11:52:00,
2013-03-06 06:02:00,21.0,17.0,30.41,NNE,19,0.0,7.0,85,0.00,,,0.00,,2013-03-06 12:02:00,
2013-03-06 06:11:00,21.0,17.0,30.41,NNE,19,0.0,7.0,85,0.00,,,0.00,,2013-03-06 12:11:00,
2013-03-06 06:21:00,22.0,18.0,30.42,NNE,19,0.0,4.0,85,0.00,,,0.00,,2013-03-06 12:21:00,
2013-03-06 06:32:00,22.0,18.0,30.42,NE,49,0.0,5.0,85,0.00,,,0.00,,2013-03-06 12:32:00,
2013-03-06 06:42:00,22.0,18.0,30.42,NE,49,0.0,5.0,85,0.00,,,0.00,,2013-03-06 12:42:00,
2013-03-06 06:52:00,21.0,17.0,30.42,NE,42,2.0,7.0,84,0.00,,,0.00,,2013-03-06 12:52:00,
2013-03-06 07:02:00,21.0,17.0,30.41,ENE,74,1.0,3.0,85,0.00,,,0.00,,2013-03-06 13:02:00,
2013-03-06 07:11:00,21.0,17.0,30.41,ENE,74,1.0,3.0,85,0.00,,,0.00,,2013-03-06 13:11:00,
2013-03-06 07:22:00,21.0,17.0,30.42,NE,42,4.0,7.0,85,0.00,,,0.00,,2013-03-06 13:22:00,
2013-03-06 07:32:00,21.0,17.0,30.41,NE,55,0.0,4.0,84,0.00,,,0.00,,2013-03-06 13:32:00,
2013-03-06 07:42:00,21.0,17.0,30.41,NE,55,0.0,4.0,84,0.00,,,0.00,,2013-03-06 13:42:00,
2013-03-06 07:52:00,21.0,17.0,30.41,NE,55,1.0,3.0,85,0.00,,,0.00,,2013-03-06 13:52:00,
2013-03-06 08:01:00,21.0,17.0,30.41,NE,44,2.0,5.0,85,0.00,,,0.00,,2013-03-06 14:01:00,
2013-03-06 08:11:00,21.0,17.0,30.41,NE,44,2.0,5.0,85,0.00,,,0.00,,2013-03-06 14:11:00,
2013-03-06 08:22:00,21.0,17.0,30.42,NE,44,0.0,3.0,84,0.00,,,0.00,,2013-03-06 14:22:00,
2013-03-06 08:32:00,22.0,18.0,30.42,NE,44,3.0,4.0,84,0.00,,,0.00,,2013-03-06 14:32:00,
2013-03-06 08:42:00,22.0,18.0,30.42,NE,44,3.0,4.0,84,0.00,,,0.00,,2013-03-06 14:42:00,
2013-03-06 08:52:00,22.0,18.0,30.42,NE,41,2.0,4.0,84,0.00,,,0.00,,2013-03-06 14:52:00,
2013-03-06 09:02:00,23.0,19.0,30.41,NE,53,2.0,5.0,83,0.00,,,0.00,,2013-03-06 15:02:00,
2013-03-06 09:11:00,23.0,19.0,30.41,NE,53,2.0,5.0,83,0.00,,,0.00,,2013-03-06 15:11:00,
2013-03-06 09:21:00,23.0,18.0,30.42,East,92,2.0,6.0,81,0.00,,,0.00,,2013-03-06 15:21:00,
2013-03-06 09:32:00,25.0,20.0,30.42,NE,53,2.0,5.0,81,0.00,,,0.00,,2013-03-06 15:32:00,
2013-03-06 09:42:00,25.0,20.0,30.42,NE,53,2.0,5.0,81,0.00,,,0.00,,2013-03-06 15:42:00,
2013-03-06 09:52:00,26.0,20.0,30.42,East,88,3.0,6.0,77,0.00,,,0.00,,2013-03-06 15:52:00,
2013-03-06 10:01:00,26.0,20.0,30.42,ESE,116,4.0,7.0,78,0.00,,,0.00,,2013-03-06 16:01:00,
2013-03-06 10:11:00,26.0,20.0,30.42,ESE,116,4.0,7.0,78,0.00,,,0.00,,2013-03-06 16:11:00,
2013-03-06 10:21:00,27.0,20.0,30.41,East,88,6.0,7.0,76,0.00,,,0.00,,2013-03-06 16:21:00,
2013-03-06 10:32:00,28.0,21.0,30.41,East,98,5.0,6.0,75,0.00,,,0.00,,2013-03-06 16:32:00,
2013-03-06 10:42:00,28.0,21.0,30.41,East,98,5.0,6.0,75,0.00,,,0.00,,2013-03-06 16:42:00,
2013-03-06 10:52:00,28.0,21.0,30.41,ESE,108,3.0,7.0,74,0.00,,,0.00,,2013-03-06 16:52:00,
2013-03-06 11:01:00,29.0,21.0,30.41,East,96,1.0,6.0,71,0.00,,,0.00,,2013-03-06 17:01:00,
2013-03-06 11:11:00,29.0,21.0,30.41,East,96,1.0,6.0,71,0.00,,,0.00,,2013-03-06 17:11:00,
2013-03-06 11:21:00,29.0,21.0,30.41,South,190,4.0,6.0,71,0.00,,,0.00,,2013-03-06 17:21:00,
2013-03-06 11:32:00,30.0,21.0,30.40,SSW,194,4.0,6.0,70,0.00,,,0.00,,2013-03-06 17:32:00,
2013-03-06 11:42:00,30.0,21.0,30.40,SSW,194,4.0,6.0,70,0.00,,,0.00,,2013-03-06 17:42:00,
2013-03-06 11:52:00,31.0,22.0,30.40,South,186,4.0,7.0,69,0.00,,,0.00,,2013-03-06 17:52:00,
2013-03-06 12:02:00,31.0,21.0,30.40,SSW,198,3.0,7.0,67,0.00,,,0.00,,2013-03-06 18:02:00,
2013-03-06 12:28:00,31.0,21.0,30.39,WSW,253,6.0,7.0,67,0.00,,,0.00,,2013-03-06 18:28:00,
2013-03-06 12:42:00,32.0,22.0,30.39,SW,225,2.0,6.0,67,0.00,,,0.00,,2013-03-06 18:42:00,
2013-03-06 12:52:00,32.0,22.0,30.38,WSW,246,2.0,8.0,67,0.00,,,0.00,,2013-03-06 18:52:00,
2013-03-06 13:02:00,33.0,22.0,30.37,South,169,4.0,7.0,64,0.00,,,0.00,,2013-03-06 19:02:00,
2013-03-06 13:11:00,33.0,22.0,30.37,South,169,4.0,7.0,64,0.00,,,0.00,,2013-03-06 19:11:00,
2013-03-06 13:21:00,33.0,22.0,30.37,South,175,3.0,7.0,64,0.00,,,0.00,,2013-03-06 19:21:00,
2013-03-06 13:32:00,34.0,23.0,30.36,SSW,202,2.0,7.0,63,0.00,,,0.00,,2013-03-06 19:32:00,
2013-03-06 13:43:00,34.0,23.0,30.36,SSW,202,2.0,7.0,63,0.00,,,0.00,,2013-03-06 19:43:00,
2013-03-06 13:53:00,34.0,23.0,30.35,South,186,5.0,8.0,63,0.00,,,0.00,,2013-03-06 19:53:00,
2013-03-06 14:01:00,35.0,23.0,30.33,SSW,210,4.0,6.0,61,0.00,,,0.00,,2013-03-06 20:01:00,
2013-03-06 14:11:00,35.0,23.0,30.33,SSW,210,4.0,6.0,61,0.00,,,0.00,,2013-03-06 20:11:00,
2013-03-06 14:22:00,36.0,24.0,30.32,SSW,198,3.0,8.0,61,0.00,,,0.00,,2013-03-06 20:22:00,
2013-03-06 14:32:00,36.0,23.0,30.32,SSW,213,4.0,6.0,60,0.00,,,0.00,,2013-03-06 20:32:00,
2013-03-06 14:42:00,36.0,23.0,30.32,SSW,213,4.0,6.0,60,0.00,,,0.00,,2013-03-06 20:42:00,
2013-03-06 14:53:00,37.0,24.0,30.31,SW,225,5.0,9.0,59,0.00,,,0.00,,2013-03-06 20:53:00,
2013-03-06 15:02:00,37.0,24.0,30.30,ESE,109,6.0,8.0,59,0.00,,,0.00,,2013-03-06 21:02:00,
2013-03-06 15:11:00,37.0,24.0,30.30,ESE,109,6.0,8.0,59,0.00,,,0.00,,2013-03-06 21:11:00,
2013-03-06 15:22:00,38.0,24.0,30.30,South,175,4.0,12.0,56,0.00,,,0.00,,2013-03-06 21:22:00,
2013-03-06 15:32:00,38.0,24.0,30.29,SSE,156,4.0,10.0,56,0.00,,,0.00,,2013-03-06 21:32:00,
2013-03-06 15:42:00,38.0,24.0,30.29,SSE,156,4.0,10.0,56,0.00,,,0.00,,2013-03-06 21:42:00,
2013-03-06 15:52:00,38.0,24.0,30.29,SE,146,3.0,7.0,56,0.00,,,0.00,,2013-03-06 21:52:00,
2013-03-06 16:01:00,39.0,24.0,30.28,SE,140,2.0,8.0,54,0.00,,,0.00,,2013-03-06 22:01:00,
2013-03-06 16:11:00,39.0,24.0,30.28,SE,140,2.0,8.0,54,0.00,,,0.00,,2013-03-06 22:11:00,
2013-03-06 16:21:00,38.0,23.0,30.28,SE,138,8.0,13.0,55,0.00,,,0.00,,2013-03-06 22:21:00,
2013-03-06 16:32:00,39.0,25.0,30.27,ESE,119,6.0,11.0,56,0.00,,,0.00,,2013-03-06 22:32:00,
2013-03-06 16:41:00,39.0,25.0,30.27,ESE,119,6.0,11.0,56,0.00,,,0.00,,2013-03-06 22:41:00,
2013-03-06 16:52:00,38.0,24.0,30.27,SE,131,7.0,13.0,56,0.00,,,0.00,,2013-03-06 22:52:00,
2013-03-06 17:01:00,38.0,25.0,30.26,ESE,121,9.0,13.0,58,0.00,,,0.00,,2013-03-06 23:01:00,
2013-03-06 17:11:00,38.0,25.0,30.26,ESE,121,9.0,13.0,58,0.00,,,0.00,,2013-03-06 23:11:00,
2013-03-06 17:21:00,38.0,25.0,30.26,ESE,120,8.0,11.0,58,0.00,,,0.00,,2013-03-06 23:21:00,
2013-03-06 17:32:00,37.0,24.0,30.25,SE,129,7.0,13.0,59,0.00,,,0.00,,2013-03-06 23:32:00,
2013-03-06 17:42:00,37.0,24.0,30.24,ESE,123,10.0,13.0,60,0.00,,,0.00,,2013-03-06 23:42:00,
2013-03-06 17:52:00,37.0,24.0,30.24,ESE,123,10.0,13.0,60,0.00,,,0.00,,2013-03-06 23:52:00,
2013-03-06 18:01:00,36.0,25.0,30.24,ESE,121,9.0,11.0,63,0.00,,,0.00,,2013-03-07 00:01:00,
2013-03-06 18:11:00,36.0,25.0,30.24,ESE,121,9.0,11.0,63,0.00,,,0.00,,2013-03-07 00:11:00,
2013-03-06 18:21:00,35.0,25.0,30.24,SE,128,5.0,8.0,66,0.00,,,0.00,,2013-03-07 00:21:00,
2013-03-06 18:32:00,34.0,24.0,30.24,SE,133,5.0,8.0,66,0.00,,,0.00,,2013-03-07 00:32:00,
2013-03-06 18:41:00,34.0,24.0,30.24,SE,133,5.0,8.0,66,0.00,,,0.00,,2013-03-07 00:41:00,
2013-03-06 18:52:00,32.0,24.0,30.24,ESE,117,6.0,8.0,71,0.00,,,0.00,,2013-03-07 00:52:00,
2013-03-06 19:01:00,31.0,24.0,30.24,ESE,116,7.0,7.0,74,0.00,,,0.00,,2013-03-07 01:01:00,
2013-03-06 19:11:00,31.0,24.0,30.24,ESE,116,7.0,7.0,74,0.00,,,0.00,,2013-03-07 01:11:00,
2013-03-06 19:21:00,30.0,23.0,30.24,ESE,117,5.0,6.0,76,0.00,,,0.00,,2013-03-07 01:21:00,
2013-03-06 19:31:00,30.0,24.0,30.24,ESE,117,6.0,7.0,77,0.00,,,0.00,,2013-03-07 01:31:00,
2013-03-06 19:41:00,30.0,24.0,30.24,ESE,117,6.0,7.0,77,0.00,,,0.00,,2013-03-07 01:41:00,
2013-03-06 19:52:00,29.0,23.0,30.24,ESE,117,6.0,7.0,78,0.00,,,0.00,,2013-03-07 01:52:00,
2013-03-06 20:01:00,29.0,24.0,30.24,ESE,117,5.0,6.0,80,0.00,,,0.00,,2013-03-07 02:01:00,
2013-03-06 20:11:00,29.0,24.0,30.24,ESE,117,5.0,6.0,80,0.00,,,0.00,,2013-03-07 02:11:00,
2013-03-06 20:21:00,29.0,24.0,30.24,ESE,117,5.0,6.0,80,0.00,,,0.00,,2013-03-07 02:21:00,
2013-03-06 20:31:00,28.0,23.0,30.23,ESE,119,6.0,8.0,81,0.00,,,0.00,,2013-03-07 02:31:00,
2013-03-06 20:41:00,28.0,23.0,30.23,ESE,119,6.0,8.0,81,0.00,,,0.00,,2013-03-07 02:41:00,
2013-03-06 20:52:00,28.0,23.0,30.23,ESE,119,6.0,8.0,81,0.00,,,0.00,,2013-03-07 02:52:00,
2013-03-06 21:01:00,30.0,25.0,30.23,ESE,121,9.0,12.0,81,0.00,,,0.00,,2013-03-07 03:01:00,
2013-03-06 21:11:00,31.0,25.0,30.22,SE,126,9.0,12.0,79,0.00,,,0.00,,2013-03-07 03:11:00,
2013-03-06 21:21:00,31.0,25.0,30.22,SE,126,9.0,12.0,79,0.00,,,0.00,,2013-03-07 03:21:00,
2013-03-06 21:32:00,31.0,25.0,30.22,SE,127,9.0,12.0,79,0.00,,,0.00,,2013-03-07 03:32:00,
2013-03-06 21:42:00,31.0,25.0,30.22,SE,127,9.0,12.0,79,0.00,,,0.00,,2013-03-07 03:42:00,
2013-03-06 21:52:00,31.0,25.0,30.22,SE,128,11.0,14.0,78,0.00,,,0.00,,2013-03-07 03:52:00,
2013-03-06 22:01:00,30.0,24.0,30.23,SE,129,8.0,13.0,78,0.00,,,0.00,,2013-03-07 04:01:00,
2013-03-06 22:11:00,30.0,24.0,30.23,SE,129,8.0,13.0,78,0.00,,,0.00,,2013-03-07 04:11:00,
2013-03-06 22:21:00,30.0,24.0,30.23,SE,129,7.0,12.0,79,0.00,,,0.00,,2013-03-07 04:21:00,
2013-03-06 22:31:00,29.0,24.0,30.23,SE,130,8.0,12.0,80,0.00,,,0.00,,2013-03-07 04:31:00,
2013-03-06 22:42:00,29.0,24.0,30.23,SE,130,8.0,12.0,80,0.00,,,0.00,,2013-03-07 04:42:00,
2013-03-06 22:52:00,29.0,24.0,30.23,SE,125,9.0,13.0,81,0.00,,,0.00,,2013-03-07 04:52:00,
2013-03-06 23:01:00,28.0,23.0,30.24,SE,124,8.0,11.0,82,0.00,,,0.00,,2013-03-07 05:01:00,
2013-03-06 23:12:00,28.0,23.0,30.24,SE,124,8.0,11.0,82,0.00,,,0.00,,2013-03-07 05:12:00,
2013-03-06 23:22:00,28.0,23.0,30.23,SE,124,8.0,11.0,82,0.00,,,0.00,,2013-03-07 05:22:00,
2013-03-06 23:32:00,28.0,23.0,30.24,SE,131,6.0,9.0,82,0.00,,,0.00,,2013-03-07 05:32:00,
2013-03-06 23:42:00,28.0,23.0,30.24,SE,131,6.0,9.0,82,0.00,,,0.00,,2013-03-07 05:42:00,
2013-03-06 23:52:00,28.0,24.0,30.24,SE,134,6.0,9.0,83,0.00,,,0.00,,2013-03-07 05:52:00,